Location: Cardiff
(53.7833°N, 113.6000°W)
Time: 07:01:08
(UTC+00:00)

VELOX 1 - Pass Details

Date: 07 December 2023
Orbit: 608 x 622 km, 98.4° (Epoch: 25 February)

Event Time Altitude Azimuth Distance (km) Brightness Sun altitude
Rises 12:17:54 0° 115° (ESE) 2,866 ? -28.0°
Reaches altitude 10° 12:20:41 10° 95° (E) 1,967 ? -27.6°
Maximum altitude 12:23:26 17° 55° (NE) 1,561 ? -27.2°
Drops below altitude 10° 12:26:12 10° 14° (NNE) 1,978 ? -26.8°
Enters shadow 12:27:07 - 6° (N) 2,246 ? -26.6°
